This is the latest recevied weather packets stored in our database for station/object N9DMT-13. If no packets are shown the sender has not sent any weather packets the latest 10 day(s).
| Time | Temp. | Humidity | Pressure | Rain* | Wind** | Luminosity | Snow |
|---|---|---|---|---|---|---|---|
| 1778209650 | 3.89° C | 70% | 979.7 hPa | 0 mm | - | - | - |
| 1778209349 | 3.89° C | 73% | 979.5 hPa | 0 mm | - | - | - |
| 1778209048 | 4.44° C | 72% | 979.5 hPa | 0 mm | - | - | - |
| 1778208747 | 4.44° C | 69% | 979.2 hPa | 0 mm | - | - | - |
| 1778208446 | 4.44° C | 68% | 979.4 hPa | 0 mm | - | - | - |
| 1778208146 | 5° C | 68% | 979.3 hPa | 0 mm | - | - | - |
| 1778207845 | 5° C | 68% | 979.1 hPa | 0 mm | - | - | - |
| 1778207544 | 5° C | 67% | 979.2 hPa | 0 mm | - | - | - |
| 1778207243 | 5.56° C | 65% | 979.2 hPa | 0 mm | - | - | - |
| 1778206942 | 5.56° C | 65% | 979.1 hPa | 0 mm | - | - | - |
| 1778206641 | 6.11° C | 63% | 979 hPa | 0 mm | - | - | - |
| 1778206341 | 6.11° C | 61% | 979 hPa | 0 mm | - | - | - |
| 1778206038 | 6.67° C | 58% | 979 hPa | 0 mm | - | - | - |
| 1778205737 | 6.67° C | 61% | 978.8 hPa | 0 mm | - | - | - |
| 1778205437 | 6.67° C | 64% | 978.6 hPa | 0 mm | - | - | - |
| 1778205136 | 6.67° C | 63% | 978.7 hPa | 0 mm | - | - | - |
| 1778204834 | 7.22° C | 58% | 978.5 hPa | 0 mm | - | - | - |
| 1778204533 | 7.22° C | 56% | 978.4 hPa | 0 mm | - | - | - |
| 1778204233 | 7.78° C | 54% | 978.5 hPa | 0 mm | - | - | - |
| 1778203932 | 8.33° C | 56% | 978.5 hPa | 0 mm | - | - | - |
| 1778203631 | 8.89° C | 52% | 978.2 hPa | 0 mm | - | - | - |
| 1778203331 | 8.89° C | 47% | 978.3 hPa | 0 mm | - | - | - |
| 1778203030 | 9.44° C | 48% | 978.2 hPa | 0 mm | - | - | - |
| 1778202729 | 10° C | 45% | 978.2 hPa | 0 mm | - | - | - |
| 1778202428 | 10° C | 41% | 978 hPa | 0 mm | - | - | - |
* Rain latest hour (hover to see other rain measurements)
** Current wind speed in m/s (hover to see current wind gust speed)